Visibility
15.0 15.0 15.0 15.0 15.0 15.0 15.0 15.0 15.0 15.0 15.0 15.0 15.0 15.0 15.0 15.0 15.0 15.0 15.0 15.0 15.0 15.0 15.0 15.0 15.0 15.0 15.0 15.0 15.0 15.0 15.0 15.0 15.0 15.0 15.0 15.0 15.0 15.0 15.0 15.0 15.0 15.0 15.0
15.0 15.0 15.0 15.0 15.0 15.0 15.0 15.0 15.0 15.0 15.0 15.0 15.0 15.0 15.0 15.0 15.0 15.0 15.0 15.0 15.0 15.0 15.0 15.0 15.0 15.0 15.0 15.0 15.0 15.0 15.0 15.0 15.0 15.0 15.0 15.0 15.0 15.0 15.0 15.0 15.0 15.0 15.0
15.0 15.0 15.0 15.0 15.0 15.0 15.0 15.0 15.0 15.0 15.0 15.0 15.0 15.0 15.0 15.0 15.0 15.0 15.0 15.0 15.0 15.0 15.0 15.0 15.0 15.0 15.0 15.0 15.0 15.0 15.0 15.0 15.0 15.0 15.0 15.0 15.0 15.0 15.0 15.0 15.0 15.0 15.0
15.0 14.2 15.0 15.0 15.0 15.0 15.0 15.0 15.0 15.0 15.0 15.0 15.0 15.0 15.0 15.0 15.0 15.0 15.0 15.0 15.0 15.0 15.0 15.0 15.0 15.0 15.0 15.0 15.0 15.0 15.0 15.0 15.0 15.0 15.0 15.0 15.0 15.0 15.0 15.0 15.0 15.0 15.0
15.0 15.0 15.0 15.0 15.0 15.0 14.9 15.0 15.0 15.0 15.0 15.0 15.0 15.0 15.0 15.0 15.0 15.0 15.0 15.0 15.0 15.0 15.0 15.0 15.0 15.0 15.0 15.0 15.0 15.0 15.0 15.0 15.0 15.0 15.0 15.0 15.0 15.0 15.0 15.0 15.0 15.0 15.0
5.3 11.7 11.6 4.9 3.7 15.0 4.9 11.8 7.1 6.3 15.0 15.0 15.0 15.0 15.0 15.0 15.0 15.0 15.0 15.0 15.0 15.0 15.0 15.0 15.0 15.0 15.0 15.0 15.0 15.0 15.0 15.0 15.0 15.0 15.0 15.0 15.0 15.0 15.0 15.0 15.0 15.0 15.0
15.0 15.0 15.0 15.0 15.0 14.3 4.8 9.3 10.7 8.4 4.4 15.0 15.0 15.0 15.0 15.0 15.0 15.0 15.0 15.0 15.0 15.0 15.0 15.0 15.0 15.0 15.0 15.0 15.0 15.0 15.0 15.0 15.0 15.0 15.0 15.0 15.0 15.0 15.0 15.0 15.0 15.0 15.0
15.0 15.0 15.0 15.0 15.0 15.0 15.0 10.8 9.1 9.6 8.9 4.9 6.6 5.7 14.6 15.0 15.0 15.0 15.0 15.0 15.0 15.0 15.0 15.0 15.0 15.0 15.0 15.0 15.0 15.0 15.0 15.0 15.0 15.0 15.0 15.0 15.0 15.0 15.0 15.0 15.0 15.0 15.0
15.0 15.0 15.0 15.0 15.0 15.0 15.0 13.8 14.8 13.6 5.4 15.0 11.5 14.0 13.8 12.7 15.0 15.0 15.0 15.0 15.0 15.0 15.0 15.0 15.0 15.0 13.5 14.8 15.0 15.0 15.0 15.0 15.0 15.0 15.0 15.0 15.0 15.0 15.0 15.0 15.0 15.0 15.0
15.0 15.0 15.0 15.0 15.0 15.0 15.0 15.0 15.0 12.4 9.1 13.1 15.0 8.1 15.0 14.0 7.6 15.0 12.9 15.0 15.0 15.0 15.0 15.0 15.0 15.0 15.0 15.0 15.0 15.0 15.0 15.0 15.0 15.0 15.0 15.0 15.0 15.0 15.0 15.0 15.0 15.0 15.0
15.0 15.0 15.0 15.0 15.0 15.0 15.0 15.0 15.0 15.0 13.1 0.1 4.8 7.8 10.0 14.5 14.3 14.2 15.0 15.0 15.0 15.0 15.0 15.0 15.0 15.0 15.0 15.0 15.0 15.0 15.0 15.0 15.0 15.0 15.0 15.0 15.0 15.0 15.0 15.0 15.0 15.0 15.0
15.0 15.0 15.0 15.0 15.0 15.0 15.0 15.0 15.0 15.0 15.0 15.0 15.0 9.0 6.6 3.1 10.8 12.7 15.0 15.0 15.0 15.0 15.0 15.0 15.0 15.0 15.0 15.0 15.0 15.0 6.1 12.6 12.3 15.0 15.0 15.0 15.0 15.0 15.0 15.0 15.0 15.0 15.0
15.0 15.0 13.4 15.0 15.0 15.0 15.0 15.0 15.0 15.0 15.0 15.0 15.0 0.7 15.0 5.6 10.3 5.8 2.7 2.9 5.3 15.0 4.9 14.8 15.0 15.0 15.0 15.0 14.7 15.0 15.0 15.0 13.0 15.0 15.0 15.0 15.0 15.0 15.0 15.0 15.0 15.0 15.0
15.0 15.0 15.0 14.5 14.2 8.0 5.9 15.0 15.0 15.0 15.0 15.0 15.0 15.0 15.0 15.0 1.6 3.4 0.4 1.4 0.6 11.6 10.4 13.8 5.7 12.7 15.0 15.0 15.0 15.0 15.0 15.0 15.0 15.0 15.0 15.0 15.0 15.0 15.0 15.0 15.0 15.0 15.0
15.0 15.0 15.0 15.0 15.0 15.0 15.0 5.2 6.3 4.4 13.3 15.0 15.0 15.0 15.0 15.0 15.0 15.0 15.0 15.0 8.8 1.2 1.7 15.0 13.3 15.0 15.0 15.0 15.0 15.0 15.0 15.0 15.0 6.2 15.0 15.0 15.0 14.6 15.0 15.0 15.0 15.0 15.0
15.0 15.0 15.0 15.0 15.0 15.0 15.0 7.2 4.4 9.7 5.3 2.6 14.7 15.0 15.0 15.0 15.0 15.0 15.0 15.0 13.5 7.0 8.6 9.7 4.7 15.0 15.0 15.0 15.0 15.0 15.0 14.5 15.0 9.1 15.0 15.0 15.0 15.0 15.0 15.0 15.0 15.0 15.0
15.0 15.0 15.0 15.0 15.0 15.0 15.0 5.4 2.6 5.1 6.1 15.0 15.0 15.0 15.0 15.0 15.0 15.0 15.0 15.0 15.0 15.0 0.1 15.0 7.1 15.0 15.0 6.4 15.0 15.0 13.2 13.6 14.4 12.8 9.2 14.0 15.0 15.0 15.0 15.0 15.0 15.0 15.0
15.0 15.0 15.0 15.0 15.0 15.0 15.0 15.0 15.0 15.0 15.0 10.1 15.0 15.0 15.0 15.0 15.0 15.0 15.0 15.0 15.0 15.0 0.5 0.3 15.0 6.4 9.4 15.0 14.9 15.0 8.4 6.7 5.5 7.6 9.1 11.6 15.0 15.0 15.0 15.0 15.0 15.0 15.0
15.0 15.0 15.0 15.0 15.0 15.0 15.0 15.0 8.6 11.8 15.0 14.3 15.0 15.0 15.0 15.0 15.0 15.0 15.0 15.0 15.0 15.0 15.0 12.5 8.4 7.1 10.1 14.2 15.0 15.0 15.0 6.1 4.4 4.6 5.3 5.9 9.0 14.8 11.9 15.0 15.0 15.0 15.0
15.0 15.0 15.0 15.0 15.0 15.0 15.0 15.0 15.0 15.0 14.2 15.0 15.0 15.0 15.0 15.0 15.0 15.0 15.0 15.0 15.0 15.0 15.0 15.0 15.0 6.2 4.3 4.6 11.8 0.2 0.1 4.1 0.2 4.5 4.7 5.3 6.4 12.5 10.5 10.9 15.0 15.0 15.0
15.0 15.0 15.0 15.0 15.0 15.0 15.0 15.0 7.1 4.1 15.0 15.0 15.0 15.0 15.0 15.0 15.0 15.0 15.0 0.9 15.0 15.0 15.0 1.3 4.5 5.6 0.6 0.1 0.6 4.7 0.3 0.4 2.9 5.4 1.4 1.7 6.9 6.2 14.0 14.8 15.0 15.0 12.9
15.0 15.0 15.0 15.0 15.0 9.3 15.0 15.0 0.2 15.0 15.0 12.2 14.8 14.8 15.0 15.0 15.0 15.0 14.8 3.5 0.2 0.1 2.4 2.9 3.2 5.0 0.1 14.8 12.0 0.1 0.0 0.0 0.0 0.0 0.0 0.0 0.1 0.1 10.8 7.2 11.7 15.0 12.9
15.0 15.0 13.9 11.7 14.7 15.0 15.0 15.0 3.5 15.0 15.0 15.0 0.3 0.1 0.1 8.1 0.6 0.1 0.4 0.2 0.1 2.6 0.1 4.2 1.0 3.8 0.1 0.2 0.1 0.0 0.0 0.1 4.1 0.0 0.0 0.0 0.0 0.1 4.7 9.8 8.4 11.1 0.0
15.0 15.0 15.0 15.0 15.0 15.0 15.0 15.0 11.3 15.0 15.0 11.9 0.2 0.1 0.1 0.1 0.1 0.0 0.1 0.1 0.1 0.1 0.6 0.1 3.2 3.9 10.5 10.2 2.5 0.5 0.1 0.0 0.0 0.0 0.3 0.1 0.1 0.1 0.1 0.1 0.0 0.0 0.0
15.0 15.0 15.0 15.0 7.8 15.0 15.0 15.0 15.0 15.0 15.0 3.8 0.1 0.1 0.1 0.1 0.1 0.4 0.1 0.0 0.0 0.0 1.9 14.3 9.8 0.6 6.3 4.8 2.1 0.0 0.1 0.1 0.1 0.0 0.0 0.6 0.1 0.1 0.1 0.1 0.0 0.0 0.0
15.0 15.0 15.0 15.0 15.0 15.0 15.0 15.0 15.0 15.0 8.8 0.5 0.1 0.1 0.3 0.2 0.2 3.5 0.1 0.1 0.0 0.0 0.0 0.0 0.0 0.1 0.2 0.1 0.1 13.9 15.0 0.1 0.1 0.1 0.0 0.1 0.2 0.2 0.1 0.1 0.1 0.0 0.0